Home   Weather   Yazd   Past weeks
Flag for Iran

Past Weather in Yazd, Iran — Yesterday and Last 2 Weeks

Now
106 °F

Passing clouds.


Feels Like: 100 °F
Forecast: 107 / 80 °F
Wind: 12 mph from Northwest

Location: Yazd Airport

Current Time: Jul 18, 2019 at 7:50:19 pm

Latest Report: Jul 18, 2019 at 7:00 pm


Visibility: N/A

Pressure: 29.71 "Hg (26.02 "Hg at 1218m altitude)

Humidity: 8%

Dew Point: 34 °F

Location of YazdLocation

Past Weather in Yazd — Graph

°F

Yazd Temperature Yesterday

Maximum temperature yesterday: 108 °F (at 4:30 pm)
Minimum temperature yesterday: 81 °F (at 6:00 am)
Average temperature yesterday: 95 °F

High & Low Weather Summary for the Past Weeks

 TemperatureHumidityPressure
High111 °F (Jul 5, 4:30 pm)32% (Jul 4, 5:30 am)29.95 "Hg (Jul 4, 5:30 am)
Low79 °F (Jul 18, 6:30 am)6% (Jul 17, 8:30 pm)29.53 "Hg (Jul 9, 6:00 pm)
Average98 °F13%29.72 "Hg
* Reported Jul 3 6:30 pm — Jul 18 6:30 pm, Yazd. Weather by CustomWeather, © 2019

Note: Actual official high and low records may vary slightly from our data, if they occured in-between our weather recording intervals... More about our weather records

Advertising

Yazd Weather History for the Previous 24 Hours

Scroll right to see more
 ConditionsComfort  
Time TempWeatherWind HumidityBarometerVisibility
6:30 pm
Thu, Jul 18
106 °FPassing clouds.9 mph8%29.71 "HgN/A
6:00 pm108 °FPassing clouds.12 mph8%29.71 "HgN/A
5:30 pm108 °FPassing clouds.12 mph7%29.71 "HgN/A
5:00 pm108 °FPassing clouds.5 mph7%29.71 "HgN/A
4:30 pm108 °FPassing clouds.2 mph8%29.74 "HgN/A
3:30 pm106 °FPassing clouds.9 mph8%29.74 "HgN/A
2:30 pm106 °FPassing clouds.5 mph8%29.77 "HgN/A
2:20 pm106 °FPassing clouds.5 mph8%29.77 "HgN/A
1:30 pm106 °FPassing clouds.5 mph8%29.80 "HgN/A
12:30 pm104 °FSunny.5 mph7%29.80 "Hg10 mi
11:50 am102 °FSunny.5 mph8%29.80 "Hg10 mi
11:30 am102 °FSunny.5 mph8%29.83 "Hg10 mi
10:50 am102 °FSunny.2 mph9%29.83 "Hg10 mi
10:30 am99 °FSunny.2 mph10%29.83 "Hg10 mi
9:50 am97 °FSunny.2 mph9%29.83 "Hg10 mi
9:20 am95 °FSunny.2 mph11%29.83 "Hg10 mi
8:30 am91 °FSunny.2 mph12%29.83 "Hg10 mi
7:50 am88 °FSunny.2 mph13%29.80 "Hg10 mi
7:30 am82 °FSunny.2 mph15%29.80 "Hg10 mi
6:50 am79 °FSunny.No wind16%29.80 "Hg10 mi
6:30 am79 °FSunny.No wind16%29.77 "Hg10 mi
5:30 am81 °FClear.2 mph15%29.77 "Hg10 mi
4:30 am82 °FClear.2 mph16%29.74 "Hg10 mi
3:30 am86 °FClear.2 mph13%29.74 "Hg10 mi
2:30 am90 °FClear.7 mph12%29.74 "Hg10 mi
1:30 am91 °FClear.7 mph11%29.74 "Hg10 mi
12:30 am93 °FClear.7 mph9%29.77 "Hg10 mi
11:30 pm
Wed, Jul 17
93 °FClear.7 mph9%29.77 "Hg10 mi
11:00 pm95 °FClear.5 mph8%29.77 "Hg10 mi
10:30 pm97 °FClear.7 mph8%29.74 "Hg10 mi
10:00 pm99 °FClear.7 mph7%29.74 "Hg10 mi
9:30 pm100 °FClear.9 mph7%29.74 "Hg10 mi
9:00 pm100 °FClear.9 mph7%29.71 "Hg10 mi
8:30 pm102 °FClear.9 mph6%29.71 "Hg10 mi
7:30 pm106 °FSunny.2 mph7%29.71 "Hg10 mi
Weather by CustomWeather, © 2019

See weather overview